Location: Kaarina
(60.4167°N, 22.4167°E)
Time: 23:08:01
(UTC+03:00)

ARGOS - Pass Details

Date: 24 August 2019
Orbit: 820 x 834 km, 98.5° (Epoch: 22 September)

Event Time Altitude Azimuth Distance (km) Brightness Sun altitude
Rises 21:35:27 0° 174° (S) 3,348 5.9 -4.7°
Reaches altitude 10° 21:37:50 10° 178° (S) 2,418 5.3 -4.9°
Maximum altitude 21:43:08 59° 258° (WSW) 948 3.8 -5.5°
Drops below altitude 10° 21:48:27 10° 338° (NNW) 2,433 6.6 -6.0°
Sets 21:50:51 0° 342° (NNW) 3,371 7.3 -6.2°
